sat.trackr.live / text

‹ back to catalog

STARLINK-3784

NORAD 52275 · 2022-041Q

PAYLOAD ACTIVE UNKNOWN

§ Identity

Operator
Country
US
Launch date
2022-04-21
Launch site
AFETR
Launch vehicle
Mass (kg)
RCS (m²)

Purposes: comms

External: N2YO · Heavens-Above · Gunter

§ Orbital elements

Epoch: 2026-05-25T02:57:53.000640Z

Period
95.44 min
Inclination
53.2127°
Eccentricity
0.0001175
Mean motion
15.08834272 rev/d
Perigee alt
538.9 km
Apogee alt
540.6 km
Semi-major
6,917.9 km
B*
1.7177e-5
RAAN
125.9962°
Arg perigee
73.6543°
Mean anomaly
286.4578°
Rev number
22,590

§ Raw data

STARLINK-37841 52275U 22041Q   26145.12353010 -.00000014  00000+0  17177-4 0  99952 52275  53.2127 125.9962 0001175  73.6543 286.4578 15.08834272225907

JSON: /api/v1/satellites/52275 · /tle

For live sub-satellite position, see the globe view (requires WebGL).

§ Visibility from observer

Set your observer location to see the next 7 days of passes ≥ 10°. The values pass through the URL so the page stays shareable.

No JS? Fill the form by hand. The geolocation button needs JavaScript.